This is the latest recevied weather packets stored in our database for station/object KC1TEM-13. If no packets are shown the sender has not sent any weather packets the latest 10 day(s).
| Time | Temp. | Humidity | Pressure | Rain* | Wind** | Luminosity | Snow |
|---|---|---|---|---|---|---|---|
| 1777765321 | 8.89° C | 94% | 1011.1 hPa | 0 mm | - | 4 W/m² | - |
| 1777765016 | 8.89° C | 94% | 1010.9 hPa | 0 mm | - | 6 W/m² | - |
| 1777764714 | 8.89° C | 94% | 1010.8 hPa | 0 mm | - | 9 W/m² | - |
| 1777764107 | 9.44° C | 94% | 1010.8 hPa | 0 mm | - | 22 W/m² | - |
| 1777761987 | 8.89° C | 94% | 1010.8 hPa | 0 mm | - | 8 W/m² | - |
| 1777761080 | 9.44° C | 93% | 1010.5 hPa | 0.51 mm | - | 9 W/m² | - |
| 1777760777 | 9.44° C | 93% | 1010.8 hPa | 1.27 mm | - | 6 W/m² | - |
| 1777760473 | 9.44° C | 93% | 1011 hPa | 1.27 mm | - | 10 W/m² | - |
| 1777760168 | 9.44° C | 92% | 1010.9 hPa | 3.05 mm | - | 12 W/m² | - |
| 1777759866 | 9.44° C | 90% | 1010.8 hPa | 6.1 mm | - | 11 W/m² | - |
| 1777759562 | 10° C | 89% | 1010.9 hPa | 7.87 mm | - | 17 W/m² | - |
| 1777759258 | 10° C | 87% | 1010.8 hPa | 4.83 mm | - | 15 W/m² | - |
| 1777758956 | 10° C | 85% | 1010.9 hPa | 1.78 mm | - | 8 W/m² | - |
| 1777757743 | 10.56° C | 77% | 1010.6 hPa | 0 mm | - | 10 W/m² | - |
| 1777757441 | 10.56° C | 77% | 1010.5 hPa | 0 mm | - | 9 W/m² | - |
| 1777757140 | 10.56° C | 77% | 1010.5 hPa | 0 mm | - | 13 W/m² | - |
| 1777756838 | 10.56° C | 77% | 1010.6 hPa | 0 mm | - | 7 W/m² | - |
| 1777756532 | 10.56° C | 76% | 1010.5 hPa | 0 mm | - | 11 W/m² | - |
| 1777756230 | 11.11° C | 76% | 1010.6 hPa | 0 mm | - | 14 W/m² | - |
| 1777755927 | 11.11° C | 76% | 1010.5 hPa | 0 mm | - | 15 W/m² | - |
| 1777755624 | 11.11° C | 75% | 1010.6 hPa | 0 mm | - | 20 W/m² | - |
| 1777755321 | 11.11° C | 75% | 1010.7 hPa | 0 mm | - | 17 W/m² | - |
| 1777754413 | 11.11° C | 76% | 1010.6 hPa | 0 mm | - | 32 W/m² | - |
| 1777754109 | 11.11° C | 74% | 1010.6 hPa | 0 mm | - | 31 W/m² | - |
| 1777753806 | 11.67° C | 75% | 1010.4 hPa | 0 mm | - | 49 W/m² | - |
* Rain latest hour (hover to see other rain measurements)
** Current wind speed in m/s (hover to see current wind gust speed)